Voltar ao catálogo

BREEZE-M DEB

AtivoHEO
NORAD 34231·DEBRIS·🇷🇺 Russia

Lançado Feb 28, 2006 de Baikonur Cosmodrome

Loading…

Próximas Passagens (próximas 24 horas)

TLE

AtualizadoSource: Space-Track

Época: Sep 12, 2026, 21:05 UTC

1 34231U 06006AW  26255.87895181  .00003154  00000-0  10753-1 0  9992
2 34231  52.0941  95.5403 4945710  66.3827  13.1909  5.35175744  7948

Acompanhe BREEZE-M DEB em tempo real com AllMySat

Download on the App Store